STARLINK-5267 (55655 NORAD) Tracking and Keplerian Element Data

This shows tracking and keplerian element data for the satellite.

Feedback or suggestion? Click here.




ElementValue
Catalog55655
NameSTARLINK-5267
Epoch Orbit130
Epoch Day62.91667824
Epoch Year2023
RAAN110.1882
Inclination70
Eccentricity0.0003499
Argument of Perigee269.0039
Mean Anonmoly336.4573
Mean Motion15.7516386
Decay Rate-0.00973034
L11 55655U 23021AD 23062.91667824 -.00973034 00000+0 -72575-2 0 9995
L22 55655 70.0000 110.1882 0003499 269.0039 336.4573 15.75163860 1307



Live tracking and technical data element details for STARLINK-5267 (NORAD 55655). STARLINK-5267 can be tracked NOW for your location showing map with azimuth and elevation plus other details from your city location.







IsCatalogInMostPopularTable: catalog: 55655, numindb: 1
Update: records affected: 1



GetName: 55655 STARLINK-5267

Hit Count: updated at: Wed, 22 Mar 2023 15:55:13 GMT